Weather History for Fort Leonard Wood, MO

Change the Weather History Date:

Sunday, June 1, 2014

  Actual Average Record
Temperature  
Mean Temperature 74 °F -  
Max Temperature 83 °F 75 °F 87 °F (2002)
Min Temperature 65 °F 60 °F 50 °F (2001)
Cooling Degree Days 8    
Growing Degree Days 24 (Base 50)    
Moisture  
Dew Point 69 °F    
Average Humidity 83    
Maximum Humidity 100    
Minimum Humidity 63    
Precipitation  
Precipitation 0.00 in - - ()
Sea Level Pressure  
Sea Level Pressure 29.97 in    
Wind  
Wind Speed 8 mph (SSE)    
Max Wind Speed 14 mph    
Max Gust Speed 22 mph    
Visibility 9 miles    
Events      
Averages and records for this station are not official NWS values.
T = Trace of Precipitation, MM = Missing Value Source: NWS Daily Summary

Daily Weather History Graph

Daily Weather History Graph

Search for Another Location

Airport:

Trip Planner

Search our weather history database for the weather conditions in past years. The results will help you decide how hot, cold, wet, or windy it might be!

Date:

Astronomy

Jun. 01, 2014 Rise Set
Actual Time 5:48 AM CDT 8:24 PM CDT
Civil Twilight 5:17 AM CDT 8:55 PM CDT
Nautical Twilight 4:39 AM CDT 9:33 PM CDT
Astronomical Twilight 3:57 AM CDT 10:16 PM CDT
Moon 9:18 AM CDT 11:22 PM CDT
Length of Visible Light 15h 37m
Length of Day
14h 36m
Waxing Crescent, 14% of the Moon is Illuminated
Jun 1
Waxing Crescent
Jun 5
First Quarter
Jun 12
Full
Jun 19
Last Quarter
Jun 27
New

Hourly Weather History & Observations

Time (CDT) Temp. Heat Index Dew Point Humidity Pressure Visibility Wind Dir Wind Speed Gust Speed Precip Events Conditions
12:58 AM 67.8 °F - 67.8 °F 100% 30.02 in 10.0 mi SE 5.8 mph - N/A   Clear
1:58 AM 68.5 °F - 68.5 °F 100% 30.01 in 10.0 mi ESE 8.1 mph - N/A   Clear
2:58 AM 67.1 °F - 67.1 °F 100% 30.01 in 10.0 mi SSE 4.6 mph - N/A   Clear
3:58 AM 66.9 °F - 66.9 °F 100% 30.00 in 10.0 mi SE 5.8 mph - N/A   Clear
4:58 AM 66.2 °F - 66.2 °F 100% 30.01 in 10.0 mi South 3.5 mph - N/A   Clear
5:58 AM 65.7 °F - 65.7 °F 100% 30.01 in 10.0 mi SSE 3.5 mph - N/A   Clear
6:58 AM 67.8 °F - 67.8 °F 100% 30.01 in 10.0 mi SE 4.6 mph - N/A   Clear
7:58 AM 71.6 °F - 71.1 °F 98% 30.02 in 10.0 mi SE 8.1 mph - N/A   Clear
8:58 AM 76.5 °F - 70.9 °F 83% 30.02 in 10.0 mi South 9.2 mph - N/A   Partly Cloudy
9:58 AM 78.8 °F - 70.0 °F 74% 30.03 in 10.0 mi South 11.5 mph - N/A   Scattered Clouds
10:58 AM 78.3 °F - 69.6 °F 75% 30.02 in 10.0 mi South 11.5 mph - N/A   Partly Cloudy
11:58 AM 81.7 °F 85.2 °F 69.6 °F 67% 30.01 in 10.0 mi SSE 12.7 mph 17.3 mph N/A   Scattered Clouds
12:58 PM 81.7 °F 84.7 °F 68.4 °F 64% 30.00 in 10.0 mi SSE 12.7 mph 21.9 mph N/A   Mostly Cloudy
1:58 PM 81.1 °F 84.0 °F 68.5 °F 65% 29.98 in 10.0 mi South 12.7 mph 21.9 mph N/A   Mostly Cloudy
2:58 PM 82.6 °F 85.9 °F 68.7 °F 63% 29.96 in 10.0 mi South 11.5 mph 19.6 mph N/A   Mostly Cloudy
3:58 PM 79.9 °F - 69.4 °F 70% 29.95 in 10.0 mi SSE 13.8 mph 19.6 mph N/A   Overcast
4:58 PM 80.4 °F 83.4 °F 69.1 °F 68% 29.93 in 10.0 mi Variable 6.9 mph 17.3 mph N/A   Mostly Cloudy
5:58 PM 79.2 °F - 68.0 °F 69% 29.91 in 10.0 mi South 9.2 mph - N/A   Mostly Cloudy
6:58 PM 78.4 °F - 70.3 °F 76% 29.89 in 7.0 mi SSE 12.7 mph 18.4 mph N/A   Mostly Cloudy
7:58 PM 77.5 °F - 69.1 °F 75% 29.88 in 6.0 mi South 11.5 mph - N/A   Haze
8:58 PM 74.7 °F - 68.7 °F 82% 29.89 in 6.0 mi SSE 8.1 mph - N/A   Haze
9:58 PM 72.9 °F - 68.0 °F 85% 29.92 in 5.0 mi SSE 6.9 mph - N/A   Haze
10:58 PM 72.1 °F - 68.0 °F 87% 29.94 in 5.0 mi SSE 5.8 mph - N/A   Clear
11:58 PM 71.1 °F - 68.4 °F 91% 29.94 in 5.0 mi SSE 6.9 mph - N/A   Clear